This is the latest recevied weather packets stored in our database for station/object KB3AWQ. If no packets are shown the sender has not sent any weather packets the latest 10 day(s).
| Time | Temp. | Humidity | Pressure | Rain* | Wind** | Luminosity | Snow |
|---|---|---|---|---|---|---|---|
| 1787763566 | 25° C | 71% | 1018.9 hPa | 0 mm | - | 887 W/m² | - |
| 1787763266 | 24.44° C | 73% | 1019 hPa | 0 mm | - | 891 W/m² | - |
| 1787762966 | 24.44° C | 72% | 1019.1 hPa | 0 mm | - | 845 W/m² | - |
| 1787762666 | 24.44° C | 73% | 1019.1 hPa | 0 mm | - | 888 W/m² | - |
| 1787762366 | 23.89° C | 74% | 1019.2 hPa | 0 mm | - | 892 W/m² | - |
| 1787762066 | 23.89° C | 75% | 1019.2 hPa | 0 mm | - | 891 W/m² | - |
| 1787761768 | 23.89° C | 75% | 1019.2 hPa | 0 mm | - | 874 W/m² | - |
| 1787761468 | 23.33° C | 76% | 1019.2 hPa | 0 mm | - | 873 W/m² | - |
| 1787761166 | 23.33° C | 75% | 1019.3 hPa | 0 mm | - | 851 W/m² | - |
| 1787760867 | 23.33° C | 77% | 1019.3 hPa | 0 mm | - | 879 W/m² | - |
| 1787760566 | 23.33° C | 76% | 1019.3 hPa | 0 mm | - | 795 W/m² | - |
| 1787760266 | 23.33° C | 76% | 1019.4 hPa | 0 mm | - | 828 W/m² | - |
| 1787759967 | 23.33° C | 76% | 1019.5 hPa | 0 mm | - | 837 W/m² | - |
| 1787759668 | 22.78° C | 78% | 1019.4 hPa | 0 mm | - | 843 W/m² | - |
| 1787759366 | 22.78° C | 81% | 1019.5 hPa | 0 mm | - | 840 W/m² | - |
| 1787759067 | 22.22° C | 79% | 1019.6 hPa | 0 mm | - | 833 W/m² | - |
| 1787758766 | 22.22° C | 80% | 1019.6 hPa | 0 mm | - | 824 W/m² | - |
| 1787758468 | 21.67° C | 80% | 1019.7 hPa | 0 mm | - | 816 W/m² | - |
| 1787758166 | 21.67° C | 81% | 1019.8 hPa | 0 mm | - | 807 W/m² | - |
| 1787757867 | 21.11° C | 82% | 1019.8 hPa | 0 mm | - | 797 W/m² | - |
| 1787757566 | 21.11° C | 84% | 1019.8 hPa | 0 mm | - | 787 W/m² | - |
| 1787757268 | 20.56° C | 86% | 1020 hPa | 0 mm | - | 775 W/m² | - |
| 1787756967 | 20.56° C | 86% | 1020.1 hPa | 0 mm | - | 755 W/m² | - |
| 1787756666 | 20.56° C | 86% | 1020.1 hPa | 0 mm | - | 695 W/m² | - |
| 1787756367 | 20° C | 87% | 1020.2 hPa | 0 mm | - | 732 W/m² | - |
* Rain latest hour (hover to see other rain measurements)
** Current wind speed in m/s (hover to see current wind gust speed)